Regional Weather Roundup
Issued by NWS Wakefield, VA

Home | Current Version | Previous Version | Text Only | Print | Product List | Glossary Off
Versions: 1 2 3 4 5 6 7 8 9 10 11 12 13 14 15 16 17 18 19 20 21 22 23 24 25 26 27 28 29 30 31 32 33 34 35 36 37 38 39 40 41 42 43 44 45 46 47 48 49 50

000
ASUS41 KAKQ 122010
RWRAKQ

REGIONAL WEATHER ROUNDUP
NATIONAL WEATHER SERVICE WAKEFIELD VA
400 PM EDT SAT JUL 12 2014

Note: "fair" indicates few or no clouds below 12,000 feet with no
significant weather and/or obstructions to visibility. * = Denotes
station may not report precipitation (e.g., rain,snow,etc.),
thunder or fog.

VAZ042-051-052>054-056-122100-
NORTHERN VIRGINIA

CITY           SKY/WX    TMP DP  RH WIND       PRES   REMARKS
WASH NATIONAL  PTSUNNY   89  66  46 S14       30.15F
DULLES         PTSUNNY   86  69  56 S8        30.15F
FORT BELVOIR   NOT AVBL
QUANTICO       SUNNY     86  70  58 S12       30.16F
FREDERICKSBRG* MOSUNNY   91  66  44 S10       30.14F
STAFFORD*      PTSUNNY   88  68  51 SE9       30.19F
WARRENTON      SUNNY     89  76  65 S8        30.15F HX  99
CULPEPER*      MOSUNNY  N/A N/A N/A SW8       30.15F
MANASSAS*      PTSUNNY   88  72  58 S12       30.15F
LEESBURG*      PTSUNNY   86  72  62 SW8       30.15F
WINCHESTER     LGT RAIN  79  70  73 E12       30.15F
$$

VAZ048-049-060>072-079>083-122100-
CENTRAL AND SOUTH CENTRAL VIRGINIA...AND NORTH CENTRAL NORTH CAROLINA

CITY           SKY/WX    TMP DP  RH WIND       PRES   REMARKS
RICHMOND       PTSUNNY   90  61  37 S9        30.17F
CHESTERFIELD*  CLEAR     88  61  40 S8        30.19F
HANOVER        MOSUNNY   91  61  36 E6        30.18F
TAPPAHANNOCK*  MOSUNNY   89  64  42 E6        30.18F
CHARLOTTSVILLE MOSUNNY   88  67  49 S9        30.16F
ORANGE*        MOSUNNY   88  66  48 S10       30.17F
LOUISA*        MOSUNNY   88  70  55 S8        30.16F
FARMVILLE*     MOSUNNY   90  63  40 SW8       30.16F
SOUTH HILL*    MOSUNNY   88  64  45 CALM      30.24F
ROANOKE RAPIDS CLEAR     88  68  51 SE5       30.19S
RALEIGH        PTSUNNY   88  66  48 SW5       30.19F
$$

VAZ088>098-122100-
SOUTHEAST VIRGINIA

CITY           SKY/WX    TMP DP  RH WIND       PRES   REMARKS
NORFOLK        MOSUNNY   82  70  66 NE12      30.19S
VIRGINIA BEACH MOSUNNY   79  69  71 E6        30.19S
NORFOLK NAVAL  MOSUNNY   82  71  69 E13       30.21S
WEST POINT*    SUNNY     88  64  44 SE8       30.20F
NEWPORT NEWS   SUNNY     86  68  54 E7        30.20S
LANGLEY AFB    NOT AVBL
FORT EUSTIS    NOT AVBL
WILLIAMSBURG*  SUNNY     90  72  55 S6        30.20F HX  96
FRANKLIN*      MOSUNNY   88  66  48 CALM      30.19S
WAKEFIELD      MOSUNNY   87  67  51 S5        30.19S
$$

VAZ020-022-025-037-045-122100-
WESTERN AND SOUTHWEST VIRGINIA

CITY           SKY/WX    TMP DP  RH WIND       PRES   REMARKS
STAUNTON*      MOSUNNY   84  65  51 SE9       30.20F
HOT SPRINGS VA PTSUNNY   74  62  66 S7G17     30.34F
LYNCHBURG      MOSUNNY   86  65  49 S9        30.20F
DANVILLE       SUNNY     89  65  44 S5        30.19F
MARTINSVILLE   SUNNY     91  64  40 S3        30.21F
ROANOKE        PTSUNNY   86  65  49 SE14G21   30.20F
BLACKSBURG     PTSUNNY   82  68  61 SE9       30.26F
DUBLIN*        PTSUNNY   84  63  49 S12       30.25F
MARION*        PTSUNNY   85  67  54 W5        30.28F
HILLSVILLE*    PTSUNNY   79  64  59 S8        30.29F
RICHLANDS*     PTCLDY    87  65  48 NW9       30.27S
WISE*          PTSUNNY   86  54  32 NW7       30.28F
ABINGDON*      MOSUNNY   87  62  42 W5        30.24F
$$

MDZ021>025-VAZ099-100-122100-
SOUTHERN MARYLAND AND THE DELMARVA PENINSULA

CITY           SKY/WX    TMP DP  RH WIND       PRES   REMARKS
PATUXENT RIVER MOSUNNY   82  63  52 SE10      30.19S
BAY BRIDGE APT   N/A     86  63  45 S9G17     30.18S
LEONARDTOWN    MOSUNNY   86  64  48 CALM      30.20S
DOVER          NOT AVBL
GEORGETOWN     MOSUNNY   83  67  58 SE13G20   30.20F
EASTON         NOT AVBL
CAMBRIDGE      SUNNY     86  64  48 S7        30.18S
SALISBURY      SUNNY     86  67  52 VRB7      30.20S
OCEAN CITY     SUNNY     78  70  76 S7        30.22S
WALLOPS ISLAND MOSUNNY   80  70  71 SE8       30.22S
ACCOMACK*        N/A     81  64  57 S3        30.21S
$$

NCZ012>017-030>032-122100-
EASTERN NORTH CAROLINA

CITY           SKY/WX    TMP DP  RH WIND       PRES   REMARKS
ELIZABETH CITY SUNNY     83  69  62 NE6       30.20S
AHOSKIE*       MOSUNNY   85  68  56 CALM      30.20S
EDENTON*       SUNNY     82  71  70 E6        30.19S
CURRITUCK*     SUNNY     83  66  56 E5        30.21S
KILL DEVIL HLS SUNNY     80  70  71 E3        30.19F
MANTEO         NOT AVBL
CAPE HATTERAS  SUNNY     83  68  60 VRB6      30.19F
GOLDSBORO      NOT AVBL
WASHINGTON     SUNNY     85  67  53 E3        30.18F
GREENVILLE     MOSUNNY   88  70  55 NE5       30.19F
NEW BERN       MOSUNNY   89  68  49 CALM      30.18F
WILMINGTON     SUNNY     85  71  63 VRB5      30.17F
$$

VAZ048-122100-
ELSEWHERE

CITY           SKY/WX    TMP DP  RH WIND       PRES   REMARKS
HARRISBURG PA  RAIN      77  72  84 VRB3      30.14S
BALTIMORE      MOSUNNY   84  68  58 SE7G17    30.15F
ANNAPOLIS      PTSUNNY   83  64  52 S16       30.16F
ANDREWS AFB    NOT AVBL
WILMINGTON DE  SUNNY     84  65  52 S14       30.17F
PHILADELPHIA   MOSUNNY   88  61  40 S13       30.16F
WILDWOOD NJ*   SUNNY     79  66  65 SE12      30.22F
ATLANTIC CITY  SUNNY     79  65  62 S12       30.20F
HENDERSON NC   SUNNY     88  59  38 SE5       30.20F
GREENSBORO     MOSUNNY   89  61  38 SW6       30.19F
ROCKY MOUNT    MOSUNNY   88  67  49 CALM      30.19F
FAYETTEVILLE   SUNNY     90  67  46 VRB5      30.16F
CHARLOTTE      MOSUNNY   89  62  40 S3        30.19F
$$

VAZ100-122100-
MARINE

STATION/POSITION TIME  TEMP    WIND        PRES    WAVE   SWELL
                       AIR SEA DIR/SP/G            HT/PER HT/PER
                 (UTC) (F)     (DEG/KT/KT) (MB)    (FT/S) (FT/S)
44066 TX TWR #4  2000   72 73  150/  4/  6 1023.3R   2/ 6   2/ 6
CAPE MAY NJ      2000   73 74  160/ 11/ 14 1022.8F
LEWES DE         2000   76 70  150/ 11/ 14 1022.1F
15NM E FENWICK I 2000   74 76              1023.4F   1/ 6
OCEAN-CITY-INLET 2000   75 74  190/  5/  6 1023.2R
WACHAPREAGUE VA  2000   78 84  220/  3/  7 1022.9F
THOMAS POINT MD  2000   81 80  170/ 16/ 18 1021.7F
GOOSES REEF MD   2000   80     170/ 14/ 16 1022.6S
COVE POINT MD    2000   80     170/ 11/ 11 1022.4R
SOLOMONS ISLAND  2000      82                N/A
BISHOPS HEAD MD  2000   80 83  180/  9/ 11 1022.4F
PINEY POINT MD   2000          150/ 14/ 15   N/A
POTOMAC MD       2000   79     150/ 14/ 14 1021.7F
CAMBRIDGE MD     2000   85 81  210/  8/ 10 1021.7S
LEWISETTA VA     2000   82 83  130/ 10/ 12 1021.9S
RAPPAHANNOCK LGT 2000          180/  4/  5 1023.4S
STINGRAY PT      2000   78     160/  8/  8 1022.1S
YORK RVR RNG VA  2000   77     150/  8/  9 1022.4R
YORKTOWN VA      2000   79 81   90/ 10/ 12 1022.5S
JAMESTOWN VA     2000   81     160/  6/ 10   N/A
DOMINION TERM VA 2000   78      70/ 11/ 13 1022.7S
KIPTOPEKE VA     2000      79  140/  7/  9   N/A
CHES BAY BRIDGE  2000   76 77   60/  9/ 11 1022.4S
CAPE HENRY VA    2000   76      90/  7/  9 1021.8R
WILLOUBY STN VA  2000   82      80/ 10/ 11 1022.0S
S CRANEY ISL VA  2000           10/ 10/ 12 1022.3F
CAPE HENRY BUOY  2000      77                N/A     1/ 8
1ST LANDING BUOY 2000   77     110/  8/ 10 1022.7S
CAPE CHARLES BUO 2000      77                N/A     1/ 9
OFFSHORE WE BUOY 2000      78                N/A     2/ 8
64NM E OF VA BCH 2000   75 79   90/  8/ 10 1022.3F   2/ 8   2/ 8
DUCK PIER NC     2000   79 76   80/  6/  7 1022.0R
44056 DUCK FRF   2000                        N/A     1/ 9
OREGON INLET NC  2000   77 76   70/  7/  9 1022.4F
HATTERAS NC      2000   79 81   80/  6/ 12 1022.8F
DIAMOND SHLS NC  2000          VRB  6/  8  1022.2F   2/ 6   2/ 6
CAPE LOOKOUT NC  1900   79      90/ 10/ 11 1022.5F
$$



USA.gov is the U.S. government's official web portal to all federal, state and local government web resources and services.